SKYNET 5C

Last updated on Mon Oct 20 2025 00:02:46 GMT+0000 (Coordinated Universal Time)

1 33055U 08030A 25292.26376387 -.00000139 00000+0 00000+0 0 9991 2 33055 3.1684 79.8701 0003541 122.3600 262.9506 1.00271786 63549
UTC large
Height (km)
Speed (km/s)
/
Latitude / Longitude
Inclination (degrees)
Orbital Period (minutes)
Azimuth
Elevation
Range (km)
Doppler Factor

Next 0 passes for location: London (51.5072 / 0.1276)

Sorry there are no passes over London.